Flag for Switzerland Weather past 2 weeks in Delémont, Jura, Switzerland

Now
37 °F

Chilly.


Feels Like: 32 °F
Forecast: 25 / 39 °F
Wind: 6 mph from Southwest

Location: Grenchen

Current Time: Feb 27, 2015 at 9:19:26 AM

Latest Report: Feb 27, 2015 at 8:00 AM


Visibility: N/A

Pressure: 29.90 "Hg

Humidity: 94%

Dew point: 35 °F

Location of DelémontLocation

Historic Weather in Delémont — Graph

°F

Delémont temperature yesterday

Maximum temperature yesterday: 46 °F (at 3:00 PM)
Minimum temperature yesterday: 27 °F (at 8:00 AM)
Average temperature yesterday: 38 °F

Past Weeks' High & Low Weather Summary

 TemperatureHumidityPressure
High49 °F (Feb 20, 4:00 PM)100% (Feb 12, 10:00 AM)30.75 "Hg (Feb 12, 10:00 AM)
Low24 °F (Feb 12, 10:00 PM)43% (Feb 26, 4:00 PM)29.63 "Hg (Feb 21, 9:00 AM)
Average34 °F91%30.11 "Hg
* Reported Feb 12 8:00 AM — Feb 27 8:00 AM, Delémont, Weather by CustomWeather, © 2015

Note: Actual official high and low records may vary slightly from our data, if they occured in-between our weather recording intervals... More about our weather records

Advertising

Delémont weather history for previous 24 hours

 ConditionsComfort  
Time TempWeatherWind HumidityBarometerVisibility
8:00 AM
Fri, Feb 27
37 °FChilly.6 mph94%29.90 "HgN/A
7:00 AM37 °FChilly.7 mph88%29.88 "HgN/A
6:00 AM36 °FChilly.3 mph94%29.89 "HgN/A
5:00 AM37 °FChilly.1 mph85%29.89 "HgN/A
3:00 AM38 °FChilly.3 mph79%29.93 "HgN/A
2:00 AM38 °FChilly.1 mph82%29.96 "HgN/A
1:00 AM38 °FChilly.1 mph77%29.98 "HgN/A
12:00 AM37 °FChilly.3 mph85%29.99 "HgN/A
11:00 PM
Thu, Feb 26
37 °FChilly.2 mph84%30.01 "HgN/A
10:00 PM38 °FChilly.2 mph82%30.02 "HgN/A
9:00 PM40 °FQuite cool.3 mph67%30.03 "HgN/A
8:00 PM41 °FQuite cool.6 mph71%30.05 "HgN/A
7:00 PM42 °FQuite cool.5 mph62%30.06 "HgN/A
6:00 PM44 °FQuite cool.5 mph60%30.05 "HgN/A
5:00 PM46 °FCool.2 mph48%30.05 "HgN/A
4:00 PM46 °FCool.2 mph43%30.06 "HgN/A
3:00 PM46 °FCool.2 mph52%30.08 "HgN/A
2:00 PM44 °FQuite cool.1 mph55%30.11 "HgN/A
1:00 PM42 °FQuite cool.2 mph60%30.14 "HgN/A
12:00 PM40 °FChilly.1 mph62%30.19 "HgN/A
11:00 AM36 °FChilly.No wind72%30.21 "HgN/A
10:00 AM33 °FChilly.1 mph84%30.24 "HgN/A
9:00 AM30 °FChilly.2 mph93%30.26 "HgN/A
Weather by CustomWeather, © 2015

See weather overviewHow to use our weather pages